[[{"header":{"parameterUnit":"m.s-1","parameterCategory":1,"la1":30.2991,"la2":30.254,"lo1":-89.0895,"lo2":-89.0444,"dy":0.0017,"dx":0.0017,"nx":28,"ny":28,"refTime":"2025-01-25T03:00:00:Z","depth":0,"parameterNumber":2,"parameterNumberName":"U-component_of_WINDS"},"data":[0,0,0,0,0,0,0,0,0,0,0,0,0,0,0,0,0,0,0,0,0,0,0,0,0,0,0,0,0,0,0,0,0,0,0,0,0,0,0,0,0,0,0,0,0,0,0,0,0,0,0,0,0,0,0,0,0,0,-5.2837,-5.2838,0,-5.292,-5.2921,-5.2922,-5.2778,-5.2773,-5.2768,-5.2763,-5.2846,-5.2852,-5.2859,0,0,0,0,0,0,0,0,0,0,0,0,0,-5.2548,-5.2554,-5.2837,-5.2838,-5.2839,-5.292,-5.2921,-5.2923,-5.2778,-5.2772,-5.2767,-5.2761,-5.2843,-5.2851,-5.2859,0,0,0,0,0,0,0,0,0,0,0,0,0,-5.2657,-5.2556,-5.2837,-5.2777,-5.2773,-5.292,-5.2921,-5.2923,-5.278,-5.2772,-5.2765,-5.2758,-5.2841,-5.285,-5.286,-5.3069,0,0,-5.2891,-5.2896,0,0,0,0,0,0,0,0,-5.2651,-5.2668,-5.2785,-5.2782,-5.2777,-5.2831,-5.2849,-5.2972,-5.2781,-5.2777,-5.2763,-5.2755,-5.2846,-5.2856,-5.2887,-5.3073,-5.3077,-5.2892,-5.2898,-5.2903,-5.2906,0,0,0,0,0,0,0,-5.2644,-5.2663,-5.287,-5.2787,-5.2782,-5.2744,-5.2752,-5.2872,-5.2852,-5.2777,-5.2766,-5.2778,-5.2843,-5.2878,-5.2888,-5.3078,-5.2892,-5.2901,-5.2907,-5.2911,-5.3436,-5.3443,0,0,0,0,0,0,-5.2644,-5.2658,-5.2867,-5.2872,-5.2695,-5.2756,-5.2764,-5.2821,-5.285,-5.2847,-5.2785,-5.2771,-5.2864,-5.2876,-5.289,-5.3135,-5.2903,-5.2912,-5.2918,-5.3428,-5.3437,-5.3446,0,0,0,0,0,0,-5.2638,-5.2664,-5.2864,-5.2762,-5.2785,-5.2768,-5.2834,-5.2827,-5.2861,-5.2856,-5.2851,-5.2825,-5.2859,-5.2876,-5.3025,-5.3136,-5.2917,-5.2926,-5.3418,-5.3431,-5.3442,-5.3627,0,0,0,0,0,0,-5.2631,-5.2663,-5.2744,-5.2765,-5.2791,-5.3,-5.2841,-5.2833,-5.288,-5.2863,-5.2892,-5.289,-5.2854,-5.3011,-5.3035,-5.3146,-5.2934,-5.3408,-5.3424,-5.3438,-5.3611,-5.3644,-5.3672,0,0,0,0,0,-5.2621,-5.2793,-5.2749,-5.2775,-5.2892,-5.3006,-5.3021,-5.2978,-5.2889,-5.2969,-5.2965,-5.2889,-5.312,-5.3028,-5.3054,-5.3169,-5.3401,-5.342,-5.3437,-5.3597,-5.3637,-5.3671,0,0,0,0,0,0,-5.2784,-5.2794,-5.2746,-5.293,-5.2968,-5.2982,-5.3081,-5.3022,-5.3086,-5.3067,-5.301,-5.3017,-5.3178,-5.3188,-5.3085,-5.3371,-5.3245,-5.3269,-5.3359,-5.3396,-5.3426,-5.342,-5.2942,0,0,0,0,0,-5.2841,-5.2935,-5.2938,-5.31,-5.3122,-5.3099,-5.3147,-5.311,-5.3148,-5.3163,-5.317,-5.3208,-5.3288,-5.3343,-5.3417,-5.3611,-5.3614,-5.3703,-5.3733,-5.3758,-5.378,-5.3881,-5.392,-5.3504,-5.3504,-5.3503,0,0,-5.2961,-5.2978,-5.3041,-5.3133,-5.3159,-5.3255,-5.3114,-5.3222,-5.3293,-5.3179,-5.332,-5.3327,-5.3365,-5.3537,-5.3613,-5.355,-5.3895,-5.3781,-5.3801,-5.3809,-5.3903,-5.3942,-5.3977,-5.3516,-5.3514,-5.3512,0,0,-5.3227,-5.3251,-5.3387,-5.3416,-5.3456,-5.3439,-5.3472,-5.3494,-5.3494,-5.3635,-5.3551,-5.3633,-5.3774,-5.3804,-5.3838,-5.4113,-5.4045,-5.4139,-5.4297,-5.4397,-5.4429,-5.4458,-5.4555,-5.459,-5.416,-5.416,-5.4161,0,-5.3371,-5.3514,-5.3465,-5.3579,-5.3621,-5.3523,-5.3659,-5.3688,-5.3751,-5.3782,-5.371,-5.3884,-5.3903,-5.4079,-5.4146,-5.4178,-5.4211,-5.4135,-5.4429,-5.4457,-5.4483,-5.4575,-5.4612,-5.4171,-5.417,-5.4169,-5.4168,0,-5.3687,-5.3788,-5.3893,-5.3956,-5.401,-5.4135,-5.4102,-5.4162,-5.412,-5.411,-5.4253,-5.4272,-5.4347,-5.4386,-5.4346,-5.4557,-5.4517,-5.4439,-5.4311,-5.4535,-5.462,-5.4655,-5.4187,-5.4183,-5.418,-5.4177,0,0,-5.4061,-5.4093,-5.4133,-5.4159,-5.4195,-5.4271,-5.439,-5.4464,-5.4516,-5.4562,-5.4659,-5.4779,-5.4706,-5.4744,-5.4706,-5.4794,-5.5008,-5.4704,-5.4704,-5.4759,-5.5239,-5.5298,-5.5339,-5.4963,-5.497,-5.4975,-5.5236,0,-5.4325,-5.4531,-5.4489,-5.4691,-5.4782,-5.4688,-5.4791,-5.4824,-5.4817,-5.4891,-5.4882,-5.4968,-5.4867,-5.4889,-5.4971,-5.4965,-5.5104,-5.4946,-5.5051,-5.5056,-5.5045,-5.5384,-5.5447,-5.5692,-5.5269,-5.5274,-5.5278,0,-5.4661,-5.472,-5.4931,-5.495,-5.4986,-5.5081,-5.5143,-5.5217,-5.525,-5.5238,-5.5281,-5.5225,-5.5341,-5.5213,-5.537,-5.5263,-5.5304,-5.5307,-5.5315,-5.5323,-5.5181,-5.54,-5.5769,-5.5806,-5.5331,-5.5326,-5.5323,0,-5.4911,-5.5042,-5.5185,-5.521,-5.5237,-5.5305,-5.5319,-5.5345,-5.5391,-5.5446,-5.5475,-5.5542,-5.5579,-5.5631,-5.5594,-5.5505,-5.5757,-5.5626,-5.575,-5.5751,-5.5807,-5.5804,-5.6188,-5.5835,-5.5834,-5.5834,-5.5833,0,-5.521,-5.5343,-5.5297,-5.5385,-5.5529,-5.5478,-5.5622,-5.5625,-5.5649,-5.5734,-5.5656,-5.5737,-5.5684,-5.576,-5.5732,-5.5866,-5.5883,-5.5876,-5.5867,-5.5883,-5.5884,-5.5908,-5.589,-5.5843,-5.5841,-5.5839,-5.5838,0,-5.5514,-5.5489,-5.5638,-5.565,-5.5656,-5.5762,-5.5772,-5.5852,-5.5838,-5.5947,-5.5969,-5.5948,-5.6033,-5.6002,-5.6093,-5.6073,-5.6244,-5.6212,-5.6233,-5.6225,-5.6349,-5.6338,-5.6761,-5.6813,-5.6428,-5.6432,-5.6435,0,-5.5707,-5.5806,-5.5829,-5.5881,-5.59,-5.5985,-5.6031,-5.5984,-5.6035,-5.608,-5.6154,-5.6233,-5.6293,-5.6434,-5.6425,-5.6494,-5.6463,-5.6606,-5.6473,-5.6485,-5.6464,-5.6458,-5.6467,-5.6633,-5.6638,-5.6642,-5.6644,0,-5.6051,-5.6033,-5.6104,-5.617,-5.6228,-5.6278,-5.632,-5.6366,-5.6321,-5.6382,-5.6469,-5.6516,-5.6608,-5.6686,-5.6747,-5.6758,-5.6694,-5.6687,-5.6718,-5.6736,-5.6743,-5.6739,-5.6305,-5.6677,-5.6674,-5.6671,-5.667,-5.6668,-5.6304,-5.6387,-5.6416,-5.6496,-5.6523,-5.6564,-5.664,-5.6635,-5.6707,-5.6779,-5.6746,-5.6846,-5.6873,-5.6948,-5.6969,-5.7045,-5.6989,-5.7036,-5.7047,-5.7059,-5.7075,-5.6731,-5.7056,-5.7055,-5.7054,-5.7053,-5.7052,0,-5.6643,-5.6656,-5.6731,-5.6793,-5.6856,-5.6789,-5.6832,-5.6889,-5.6978,-5.701,-5.707,-5.7168,-5.7243,-5.724,-5.7309,-5.737,-5.7342,-5.739,-5.7384,-5.7388,-5.7122,-5.7087,-5.7411,-5.7411,-5.7411,-5.7411,-5.7411,-5.7411,-5.6827,-5.6963,-5.6948,-5.7096,-5.7108,-5.7206,-5.7236,-5.7272,-5.7297,-5.741,-5.7472,-5.747,-5.7487,-5.7556,-5.7621,-5.7618,-5.7646,-5.7705,-5.7691,-5.7442,-5.7407,-5.7373,-5.734,-5.7712,-5.7712,-5.795,-5.7952,-5.7954]},{"header":{"parameterUnit":"m.s-1","parameterCategory":1,"la1":30.2991,"la2":30.254,"lo1":-89.0895,"lo2":-89.0444,"dy":0.0017,"dx":0.0017,"nx":28,"ny":28,"refTime":"2025-01-25T03:00:00:Z","depth":0,"parameterNumber":3,"parameterNumberName":"V-component_of_WINDS"},"data":[0,0,0,0,0,0,0,0,0,0,0,0,0,0,0,0,0,0,0,0,0,0,0,0,0,0,0,0,0,0,0,0,0,0,0,0,0,0,0,0,0,0,0,0,0,0,0,0,0,0,0,0,0,0,0,0,0,0,0.1216,0.1215,0,0.1114,0.1113,0.1112,0.1082,0.1083,0.1083,0.1084,0.0975,0.0972,0.0968,0,0,0,0,0,0,0,0,0,0,0,0,0,0.1382,0.1379,0.1216,0.1215,0.1214,0.1115,0.1113,0.1112,0.1082,0.1083,0.1084,0.1084,0.0976,0.0972,0.0968,0,0,0,0,0,0,0,0,0,0,0,0,0,0.1298,0.1378,0.1217,0.1187,0.1184,0.1115,0.1113,0.1111,0.1082,0.1083,0.1084,0.1085,0.0977,0.0972,0.0967,0.0919,0,0,0.0952,0.095,0,0,0,0,0,0,0,0,0.1303,0.1292,0.1193,0.1189,0.1185,0.1112,0.1132,0.1047,0.1082,0.112,0.1084,0.1085,0.102,0.1011,0.099,0.0914,0.0909,0.0951,0.0948,0.0946,0.0945,0,0,0,0,0,0,0,0.1309,0.1296,0.1176,0.1191,0.1187,0.1178,0.1167,0.1115,0.1066,0.1117,0.1115,0.1103,0.1018,0.0995,0.0987,0.0908,0.0951,0.0947,0.0944,0.0942,0.0788,0.0787,0,0,0,0,0,0,0.132,0.1301,0.1179,0.1173,0.1247,0.1174,0.1162,0.1135,0.1067,0.1058,0.1103,0.1102,0.1003,0.0993,0.0983,0.0923,0.0946,0.0941,0.0938,0.0789,0.0788,0.0787,0,0,0,0,0,0,0.1324,0.1309,0.1183,0.1236,0.122,0.1171,0.114,0.1132,0.1109,0.1056,0.1047,0.1089,0.1004,0.099,0.0936,0.0919,0.0939,0.0934,0.079,0.0789,0.0787,0.0801,0,0,0,0,0,0,0.1329,0.1311,0.1293,0.1236,0.1217,0.1139,0.1139,0.1129,0.1101,0.11,0.1041,0.1032,0.1003,0.0944,0.0931,0.0912,0.093,0.0792,0.079,0.0788,0.0802,0.0801,0.0799,0,0,0,0,0,0.1335,0.1299,0.1292,0.1277,0.1193,0.1138,0.1126,0.1096,0.11,0.1081,0.1047,0.1034,0.0923,0.0938,0.0924,0.0903,0.0793,0.079,0.0788,0.0803,0.0801,0.0799,0,0,0,0,0,0,0.1353,0.1291,0.1282,0.1228,0.1189,0.1133,0.1107,0.1094,0.1051,0.1052,0.1014,0.1001,0.0949,0.0921,0.0939,0.0853,0.0857,0.0852,0.0874,0.0871,0.087,0.0877,0.0926,0,0,0,0,0,0.1351,0.1312,0.126,0.1217,0.1198,0.1157,0.1131,0.1111,0.1068,0.105,0.1012,0.097,0.0926,0.0897,0.0853,0.0799,0.0785,0.0777,0.0776,0.0774,0.077,0.0739,0.0735,0.0779,0.0779,0.078,0,0,0.1346,0.1307,0.1285,0.122,0.1187,0.1147,0.1142,0.1099,0.1069,0.1043,0.099,0.0961,0.0911,0.0856,0.083,0.0831,0.0755,0.0772,0.0771,0.0767,0.0737,0.0732,0.0729,0.0778,0.0778,0.0778,0,0,0.1316,0.1283,0.1244,0.1212,0.1163,0.1136,0.1127,0.1073,0.1054,0.1,0.0981,0.0943,0.0868,0.0833,0.0806,0.0765,0.0751,0.0752,0.0743,0.0714,0.0711,0.0707,0.0693,0.0688,0.0748,0.0748,0.0748,0,0.1315,0.1255,0.1225,0.1184,0.1156,0.1134,0.1094,0.1064,0.1002,0.0983,0.0985,0.0891,0.0855,0.0793,0.0783,0.0762,0.075,0.0758,0.0714,0.071,0.0707,0.0692,0.0687,0.0748,0.0748,0.0748,0.0748,0,0.1256,0.1215,0.1189,0.1133,0.1102,0.1062,0.1026,0.0998,0.0981,0.0954,0.09,0.0857,0.0805,0.0789,0.0771,0.0724,0.0726,0.0721,0.0724,0.0703,0.0689,0.0683,0.0749,0.0749,0.0749,0.0749,0,0,0.1233,0.1163,0.1154,0.1128,0.1074,0.1041,0.1,0.095,0.0927,0.0886,0.085,0.0788,0.0784,0.0753,0.0732,0.0706,0.0677,0.0705,0.0703,0.0701,0.0622,0.0626,0.062,0.0668,0.0667,0.0666,0.0626,0,0.1195,0.1122,0.1096,0.1035,0.0997,0.0976,0.094,0.0902,0.0876,0.0839,0.0809,0.0766,0.0764,0.0745,0.0719,0.0686,0.0661,0.0689,0.0633,0.0631,0.0646,0.0612,0.0615,0.0579,0.0621,0.062,0.0619,0,0.1142,0.1102,0.1039,0.0991,0.0973,0.0942,0.0895,0.086,0.0817,0.08,0.0767,0.0747,0.0703,0.071,0.0648,0.0668,0.0643,0.0624,0.0622,0.0614,0.0623,0.0603,0.0567,0.0562,0.061,0.0611,0.0611,0,0.1131,0.1062,0.1015,0.0994,0.0937,0.0915,0.089,0.0848,0.082,0.0779,0.0761,0.0715,0.0689,0.0654,0.0622,0.0631,0.0563,0.0567,0.0546,0.0547,0.0532,0.0533,0.0491,0.0518,0.0518,0.0518,0.0518,0,0.1091,0.1053,0.101,0.0981,0.0937,0.0907,0.0865,0.0838,0.0801,0.0766,0.0745,0.0712,0.0674,0.0636,0.0611,0.0563,0.0552,0.0536,0.0529,0.0537,0.0539,0.052,0.0521,0.0517,0.0517,0.0517,0.0517,0,0.1071,0.1041,0.0988,0.0939,0.0926,0.0896,0.0854,0.0824,0.0799,0.0754,0.0742,0.0701,0.0655,0.0621,0.0561,0.0545,0.0494,0.0487,0.0509,0.0505,0.0486,0.0488,0.0429,0.042,0.0454,0.0454,0.0454,0,0.1047,0.1018,0.0967,0.0943,0.0918,0.088,0.0852,0.0822,0.0794,0.0744,0.0721,0.0675,0.0636,0.0564,0.0527,0.0482,0.0474,0.0456,0.0466,0.0475,0.0473,0.0475,0.0471,0.0454,0.0454,0.0454,0.0454,0,0.1009,0.0996,0.0958,0.0916,0.0884,0.0849,0.0813,0.0794,0.0757,0.0727,0.0681,0.0652,0.0592,0.0546,0.0497,0.047,0.0455,0.0451,0.0444,0.0451,0.0464,0.0456,0.0504,0.0452,0.0452,0.0453,0.0453,0.0453,0.0985,0.0959,0.0919,0.0878,0.0849,0.0816,0.0787,0.0758,0.072,0.0671,0.0655,0.0608,0.0566,0.05,0.0472,0.0434,0.0434,0.0423,0.042,0.0418,0.0418,0.0472,0.0425,0.0425,0.0425,0.0425,0.0425,0,0.0945,0.092,0.0882,0.0834,0.0802,0.0794,0.0754,0.0727,0.0687,0.065,0.0613,0.0561,0.0517,0.0478,0.0432,0.0409,0.0401,0.0398,0.0398,0.0392,0.0421,0.0432,0.0405,0.0405,0.0405,0.0405,0.0405,0.0405,0.0921,0.0875,0.0858,0.0798,0.0771,0.0727,0.0705,0.0674,0.0645,0.0589,0.0553,0.0529,0.0491,0.0442,0.0401,0.0391,0.0374,0.0373,0.036,0.0388,0.039,0.0392,0.0402,0.0369,0.0369,0.0334,0.0334,0.0334]}]]